Home > Weather > Glace Bay > Past weeks

Flag for Canada Past Weather in Glace Bay, Nova Scotia, Canada — Yesterday and Last 2 Weeks

Now
61 °F

Passing clouds.


Feels Like: 61 °F
Forecast: 62 / 72 °F
Wind: No wind

Location: Sydney

Current Time: Jul 24, 2016 at 11:32:50 PM

Latest Report: Jul 24, 2016 at 11:00 PM


Visibility: 15 mi

Pressure: 29.89 "Hg

Humidity: 94%

Dew Point: 59 °F

Location of Glace BayLocation

Past Weather in Glace Bay — Graph

°F

Glace Bay Temperature Yesterday

Maximum temperature yesterday: 79 °F (at 3:00 PM)
Minimum temperature yesterday: 64 °F (at 12:00 AM)
Average temperature yesterday: 68 °F

High & Low Weather Summary for the Past Weeks

 TemperatureHumidityPressure
High88 °F (Jul 16, 2:00 PM)100% (Jul 10, 5:00 AM)30.17 "Hg (Jul 10, 5:00 AM)
Low48 °F (Jul 13, 3:00 AM)44% (Jul 21, 3:00 PM)29.66 "Hg (Jul 23, 5:00 PM)
Average64 °F82%29.89 "Hg
* Reported Jul 9 10:00 PM — Jul 24 10:00 PM, Glace Bay, Weather by CustomWeather, © 2016

Note: Actual official high and low records may vary slightly from our data, if they occured in-between our weather recording intervals... More about our weather records

Advertising

Glace Bay Weather History for the Previous 24 Hours

Scroll right to see more
 ConditionsComfort  
Time TempWeatherWind HumidityBarometerVisibility
10:00 PM
Sun, Jul 24
63 °FPassing clouds.2 mph94%29.89 "Hg15 mi
9:00 PM64 °FPassing clouds.3 mph94%29.88 "Hg15 mi
8:00 PM68 °FScattered clouds.6 mph88%29.86 "Hg15 mi
7:00 PM70 °FPartly sunny.6 mph83%29.85 "Hg15 mi
6:00 PM72 °FPartly sunny.10 mph78%29.84 "Hg15 mi
5:00 PM73 °FBroken clouds.9 mph78%29.83 "Hg15 mi
4:00 PM73 °FBroken clouds.3 mph83%29.82 "Hg15 mi
3:51 PM73 °FBroken clouds.3 mph78%29.82 "Hg15 mi
3:00 PM77 °FThunderstorms. Broken clouds.5 mph69%29.80 "Hg15 mi
2:52 PM77 °FThunderstorms. Broken clouds.10 mph74%29.80 "Hg15 mi
2:02 PM75 °FSprinkles. Broken clouds.10 mph74%29.80 "Hg15 mi
2:00 PM75 °FBroken clouds.12 mph74%29.80 "Hg15 mi
1:00 PM79 °FScattered clouds.8 mph65%29.80 "Hg15 mi
12:00 PM75 °FScattered clouds.8 mph69%29.80 "Hg15 mi
11:00 AM72 °FBroken clouds.7 mph78%29.80 "Hg15 mi
10:00 AM73 °FScattered clouds.6 mph78%29.79 "Hg15 mi
9:00 AM68 °FScattered clouds.3 mph94%29.78 "Hg15 mi
8:00 AM64 °FFog.12 mph94%29.77 "Hg1 mi
7:00 AM63 °FFog.9 mph100%29.76 "Hg1 mi
6:45 AM63 °FFog.9 mph100%29.76 "Hg0 mi
6:00 AM61 °FFog.5 mph100%29.75 "Hg0 mi
5:00 AM61 °FFog.7 mph100%29.73 "Hg1 mi
4:00 AM63 °FFog.8 mph94%29.73 "Hg2 mi
3:00 AM63 °FFog.10 mph100%29.71 "Hg2 mi
2:00 AM63 °FFog.9 mph100%29.72 "Hg2 mi
1:00 AM63 °FFog.10 mph100%29.72 "Hg1 mi
12:00 AM63 °FPassing clouds.7 mph100%29.72 "Hg7 mi
11:00 PM
Sat, Jul 23
64 °FLight rain. Overcast.3 mph94%29.68 "Hg15 mi
Weather by CustomWeather, © 2016

See weather overviewHow to use our weather pages